Location: Borgo
(42.3939°N, 9.2791°E)
Time: 18:58:55
(UTC+00:00)

CZ-4B R/B - Pass Details

Date: 24 January 2021
Orbit: 387 x 458 km, 97.6° (Epoch: 03 March)

Event Time Altitude Azimuth Distance (km) Brightness Sun altitude
Rises 18:18:50 0° 355° (N) 2,451 5.1 -20.6°
Reaches altitude 10° 18:21:23 10° 335° (NNW) 1,560 4.3 -21.1°
Maximum altitude 18:23:36 17° 293° (WNW) 1,189 4.3 -21.5°
Drops below altitude 10° 18:25:47 10° 251° (WSW) 1,525 5.2 -21.9°
Sets 18:28:14 0° 230° (SW) 2,368 6.0 -22.3°
